Fremont, MI

8:59 PM EDT on April 25, 2018 (GMT -0400)
Fremont

Weather History for KFFX - July, 2012

Change the Weather History Date:

Saturday, July 7, 2012

  Actual Average (KMKG) Record (KMKG)
Temperature  
Mean Temperature 80 °F -  
Max Temperature 89 °F 80 °F 93 °F (1988)
Min Temperature 70 °F 58 °F 45 °F (1983)
Cooling Degree Days 15    
Growing Degree Days 30 (Base 50)    
Moisture  
Dew Point 68 °F    
Average Humidity 71    
Maximum Humidity 99    
Minimum Humidity 45    
Precipitation  
Precipitation 0.00 in - - ()
Sea Level Pressure  
Sea Level Pressure 29.95 in    
Wind  
Wind Speed 3 mph (NNW)    
Max Wind Speed 14 mph    
Max Gust Speed 20 mph    
Visibility 9 miles    
Events      
Averages and records for this station are not official NWS values.
T = Trace of Precipitation, MM = Missing Value Source: NWS Daily Summary

Daily Weather History Graph

Daily Weather History Graph

Search for Another Location

Airport or City:

Astronomy

Jul. 07, 2012 Rise Set
Actual Time 6:11 AM EDT 9:26 PM EDT
Civil Twilight 5:35 AM EDT 10:01 PM EDT
Nautical Twilight 4:50 AM EDT 10:47 PM EDT
Astronomical Twilight 3:54 AM EDT 11:42 PM EDT
Moon 11:35 PM EDT (7/7) 10:44 AM EDT (7/7)
Length of Visible Light 16h 25m
Length of Day
15h 15m
Waning Gibbous, 82% of the Moon is Illuminated
Jul 7
Waning Gibbous
Jul 10
Last Quarter
Jul 19
New
Jul 26
First Quarter
Aug 1
Full

Hourly Weather History & Observations

Time (EDT) Temp. Heat Index Dew Point Humidity Pressure Visibility Wind Dir Wind Speed Gust Speed Precip Events Conditions
12:16 AM 79.0 °F - 74.3 °F 85% 29.92 in 10.0 mi Calm Calm - N/A   Clear
12:35 AM 78.6 °F - 74.7 °F 88% 29.93 in 10.0 mi Calm Calm - N/A   Clear
1:15 AM 77.9 °F - 75.2 °F 91% 29.92 in 10.0 mi Calm Calm - N/A   Scattered Clouds
1:36 AM 78.4 °F - 75.2 °F 90% 29.92 in 10.0 mi Calm Calm - N/A   Scattered Clouds
1:56 AM 77.4 °F - 75.0 °F 92% 29.91 in 10.0 mi Calm Calm - N/A   Clear
2:16 AM 77.4 °F - 75.2 °F 93% 29.91 in 10.0 mi Calm Calm - N/A   Clear
2:35 AM 76.8 °F - 74.7 °F 93% 29.91 in 10.0 mi Calm Calm - N/A   Clear
2:56 AM 76.5 °F - 75.0 °F 95% 29.91 in 10.0 mi Calm Calm - N/A   Clear
3:15 AM 75.6 °F - 74.3 °F 96% 29.91 in 10.0 mi Calm Calm - N/A   Clear
3:36 AM 75.2 °F - 74.3 °F 97% 29.92 in 7.0 mi Calm Calm - N/A   Clear
3:55 AM 75.2 °F - 73.9 °F 96% 29.92 in 7.0 mi NW 3.5 mph - N/A   Clear
4:16 AM 74.7 °F - 73.6 °F 96% 29.92 in 7.0 mi Calm Calm - N/A   Clear
4:35 AM 75.0 °F - 73.9 °F 96% 29.91 in 10.0 mi Calm Calm - N/A   Clear
4:56 AM 73.8 °F - 73.2 °F 98% 29.91 in 7.0 mi Calm Calm - N/A   Clear
5:15 AM 73.4 °F - 72.9 °F 98% 29.90 in 7.0 mi South 3.5 mph - N/A   Clear
5:36 AM 73.4 °F - 72.9 °F 98% 29.92 in 7.0 mi Calm Calm - N/A   Clear
5:55 AM 73.4 °F - 72.9 °F 98% 29.92 in 7.0 mi Calm Calm - N/A   Clear
6:16 AM 73.0 °F - 72.9 °F 99% 29.90 in 4.0 mi SSW 3.5 mph - N/A   Clear
6:36 AM 73.2 °F - 72.9 °F 99% 29.90 in 4.0 mi Calm Calm - N/A   Clear
6:55 AM 73.0 °F - 72.7 °F 99% 29.89 in 4.0 mi South 3.5 mph - N/A   Clear
7:16 AM 73.8 °F - 73.4 °F 99% 29.90 in 4.0 mi Calm Calm - N/A   Clear
7:55 AM 76.1 °F - 73.8 °F 92% 29.93 in 7.0 mi WNW 6.9 mph - N/A   Clear
8:16 AM 77.0 °F - 73.8 °F 90% 29.93 in 10.0 mi West 3.5 mph - N/A   Clear
8:35 AM 77.5 °F - 73.6 °F 88% 29.94 in 10.0 mi NNW 4.6 mph - N/A   Clear
8:56 AM 78.6 °F - 73.2 °F 83% 29.95 in 10.0 mi NNE 5.8 mph - N/A   Clear
9:15 AM 79.3 °F - 72.9 °F 80% 29.94 in 10.0 mi NE 3.5 mph - N/A   Clear
9:36 AM 79.7 °F - 72.9 °F 80% 29.95 in 10.0 mi NNW 3.5 mph - N/A   Clear
9:55 AM 79.5 °F - 73.0 °F 80% 29.95 in 10.0 mi North 3.5 mph - N/A   Clear
10:16 AM 80.6 °F 85.0 °F 72.9 °F 77% 29.95 in 10.0 mi Calm Calm - N/A   Clear
10:36 AM 81.5 °F 86.5 °F 72.9 °F 75% 29.95 in 10.0 mi Calm Calm - N/A   Clear
10:55 AM 83.3 °F 89.3 °F 73.2 °F 71% 29.96 in 10.0 mi West 4.6 mph - N/A   Clear
11:16 AM 84.0 °F 90.5 °F 73.2 °F 70% 29.96 in 10.0 mi NNW 6.9 mph - N/A   Clear
11:36 AM 85.3 °F 92.2 °F 73.2 °F 67% 29.96 in 10.0 mi NNW 5.8 mph - N/A   Scattered Clouds
11:55 AM 85.6 °F 91.5 °F 71.8 °F 63% 29.96 in 10.0 mi Calm Calm - N/A   Scattered Clouds
12:16 PM 86.4 °F 90.4 °F 68.9 °F 56% 29.96 in 10.0 mi NNW 5.8 mph - N/A   Scattered Clouds
12:30 PM 87.1 °F 90.9 °F 68.5 °F 54% 29.97 in 10.0 mi North 5.8 mph - N/A   Clear
12:45 PM 86.0 °F 89.4 °F 68.0 °F 55% 29.97 in 10.0 mi Calm Calm - N/A   Clear
1:25 PM 87.8 °F 91.4 °F 68.0 °F 52% 29.97 in 10.0 mi NNW 9.2 mph - N/A   Clear
1:45 PM 87.8 °F 90.4 °F 66.2 °F 49% 29.96 in 10.0 mi NW 8.1 mph - N/A   Clear
2:40 PM 89.2 °F 91.3 °F 65.5 °F 45% 29.96 in 10.0 mi NNW 5.8 mph - N/A   Clear
2:55 PM 88.7 °F 90.4 °F 64.9 °F 45% 29.96 in 10.0 mi NNW 9.2 mph - N/A   Clear
3:16 PM 89.2 °F 91.3 °F 65.7 °F 45% 29.96 in 10.0 mi WNW 9.2 mph - N/A   Clear
3:36 PM 88.5 °F 90.8 °F 65.7 °F 47% 29.96 in 10.0 mi NNW 9.2 mph - N/A   Clear
3:55 PM 87.1 °F 89.5 °F 66.4 °F 50% 29.96 in 10.0 mi NW 12.7 mph - N/A   Mostly Cloudy
4:16 PM 85.3 °F 87.6 °F 66.6 °F 53% 29.96 in 10.0 mi NW 11.5 mph - N/A   Mostly Cloudy
4:36 PM 85.3 °F 87.6 °F 66.6 °F 53% 29.97 in 10.0 mi NNW 12.7 mph 16.1 mph N/A   Mostly Cloudy
4:55 PM 84.9 °F 87.4 °F 66.4 °F 54% 29.96 in 10.0 mi NNW 11.5 mph - N/A   Mostly Cloudy
5:16 PM 84.4 °F 86.6 °F 66.0 °F 54% 29.96 in 10.0 mi North 8.1 mph - N/A   Scattered Clouds
5:36 PM 82.6 °F 84.5 °F 65.3 °F 56% 29.97 in 10.0 mi North 9.2 mph - N/A   Mostly Cloudy
5:55 PM 83.8 °F 85.8 °F 65.5 °F 54% 29.97 in 10.0 mi NW 13.8 mph 19.6 mph N/A   Mostly Cloudy
6:16 PM 82.6 °F 84.7 °F 65.8 °F 57% 29.97 in 10.0 mi North 10.4 mph 18.4 mph N/A   Scattered Clouds
6:36 PM 81.9 °F 84.1 °F 66.2 °F 59% 29.97 in 10.0 mi North 11.5 mph - N/A   Scattered Clouds
6:55 PM 81.0 °F 82.9 °F 65.3 °F 59% 29.97 in 10.0 mi North 9.2 mph - N/A   Mostly Cloudy
7:16 PM 82.2 °F 84.0 °F 64.9 °F 56% 29.97 in 10.0 mi North 10.4 mph - N/A   Mostly Cloudy
7:35 PM 81.7 °F 83.2 °F 64.0 °F 55% 29.98 in 10.0 mi North 10.4 mph - N/A   Scattered Clouds
7:56 PM 80.8 °F 82.2 °F 63.5 °F 56% 29.98 in 10.0 mi North 8.1 mph - N/A   Clear
8:16 PM 80.6 °F 81.9 °F 63.3 °F 55% 29.99 in 10.0 mi North 6.9 mph - N/A   Clear
8:35 PM 79.5 °F - 59.9 °F 51% 29.99 in 10.0 mi North 9.2 mph - N/A   Clear
8:56 PM 78.3 °F - 58.1 °F 50% 29.99 in 10.0 mi North 8.1 mph - N/A   Clear
9:15 PM 77.0 °F - 57.0 °F 50% 30.00 in 10.0 mi NNW 10.4 mph - N/A   Clear
9:36 PM 75.7 °F - 56.5 °F 51% 30.00 in 10.0 mi North 8.1 mph - N/A   Clear
9:56 PM 75.2 °F - 54.5 °F 48% 30.01 in 10.0 mi North 9.2 mph 16.1 mph N/A   Clear
10:15 PM 74.5 °F - 53.8 °F 48% 30.02 in 10.0 mi North 8.1 mph - N/A   Clear
10:36 PM 73.4 °F - 54.1 °F 51% 30.03 in 10.0 mi North 8.1 mph - N/A   Clear
10:56 PM 72.9 °F - 54.1 °F 52% 30.04 in 10.0 mi North 8.1 mph - N/A   Clear
11:15 PM 72.5 °F - 54.5 °F 53% 30.04 in 10.0 mi North 5.8 mph - N/A   Clear
11:35 PM 71.6 °F - 55.4 °F 57% 30.04 in 10.0 mi North 6.9 mph - N/A   Clear
11:55 PM 70.7 °F - 55.8 °F 59% 30.04 in 10.0 mi North 4.6 mph - N/A   Clear